Location: Luxembourg
(49.6117°N, 6.1300°E)
Time: 21:36:55
(UTC+02:00)

Envisat - Visible Passes

Search period start: 17 July 2018 00:00
Search period end: 27 July 2018 00:00
Orbit: 764 x 766 km, 98.2° (Epoch: 17 July)

Date Brightness Start Highest point End Pass type
(mag) Time Alt. Az. Time Alt. Az. Time Alt. Az.
17 Jul 5.9 22:24:03 10° WSW 22:26:05 12° W 22:28:08 10° WNW visible
20 Jul 5.7 22:11:49 10° WSW 22:14:45 15° W 22:17:43 10° NW visible
23 Jul 5.6 21:59:54 10° SW 22:03:26 19° W 22:07:01 10° NW visible
25 Jul 6.0 22:27:55 10° W 22:29:24 11° W 22:30:53 10° WNW visible
